Location: Stamford Observatory
(41.1241°N, 73.5498°W)
Time: 04:19:20
(UTC-04:00)

IRS-P3 - Visible Passes

Search period start: 26 May 2018 00:00
Search period end: 05 June 2018 00:00
Orbit: 813 x 820 km, 98.8° (Epoch: 25 May)

Date Brightness Start Highest point End Pass type
(mag) Time Alt. Az. Time Alt. Az. Time Alt. Az.
26 May 6.5 01:12:55 10° ENE 01:13:50 10° E 01:14:45 10° E visible
26 May 4.0 02:49:10 10° NNE 02:54:31 90° E 02:56:17 44° SSW visible
26 May 6.2 04:31:29 10° NNW 04:33:44 13° WNW 04:35:59 10° W visible
27 May 4.5 02:27:30 10° NNE 02:32:45 57° E 02:34:18 42° SSE visible
27 May 5.8 04:08:35 10° NNW 04:12:18 20° WNW 04:15:35 11° WSW visible
28 May 5.1 02:06:01 10° NNE 02:10:55 36° E 02:12:19 31° SE visible
28 May 5.3 03:46:14 10° N 03:50:47 29° WNW 03:53:36 18° WSW visible
29 May 5.7 01:44:49 10° NE 01:49:00 23° E 01:50:19 21° ESE visible
29 May 4.7 03:24:08 10° N 03:29:10 45° WNW 03:31:36 27° SW visible
30 May 6.3 01:24:11 10° ENE 01:27:01 14° E 01:28:20 13° ESE visible
30 May 4.1 03:02:12 10° N 03:07:31 70° WNW 03:09:37 37° SW visible
31 May 4.1 02:40:26 10° NNE 02:45:47 75° ESE 02:47:38 42° S visible
31 May 6.0 04:22:09 10° NNW 04:25:08 15° WNW 04:28:06 10° W visible
01 Jun 4.7 02:18:50 10° NNE 02:23:59 47° E 02:25:38 36° SE visible
01 Jun 5.6 03:59:33 10° NNW 04:03:39 23° WNW 04:06:55 13° WSW visible
02 Jun 5.4 01:57:27 10° NE 02:02:07 30° E 02:03:38 26° SE visible
02 Jun 5.0 03:37:19 10° N 03:42:06 35° WNW 03:44:55 21° WSW visible
03 Jun 6.0 01:36:26 10° NE 01:40:11 19° E 01:41:38 17° ESE visible
03 Jun 4.4 03:15:17 10° N 03:20:29 54° WNW 03:22:55 30° SW visible
04 Jun 6.4 01:16:22 10° ENE 01:18:09 12° E 01:19:38 10° ESE visible
04 Jun 4.0 02:53:26 10° NNE 02:58:47 84° WNW 03:00:55 38° SSW visible
04 Jun 6.2 04:36:06 10° NW 04:37:56 12° WNW 04:39:46 10° WNW visible
